timestamp,surface_pressure_avg,surface_temp_avg,battery_voltage,lat,long
2021-05-03 00:09:01+00:00,251.8881,4.6,13.21,47.84626,-54.09684
2021-05-03 00:19:01+00:00,251.5281,4.6,12.89,47.84626,-54.09684
2021-05-03 00:29:01+00:00,255.373,4.59,12.89,47.84626,-54.09684
2021-05-03 00:39:01+00:00,265.4031,4.59,12.89,47.84626,-54.09684
2021-05-03 00:49:01+00:00,266.4581,4.59,12.89,47.84626,-54.09684
2021-05-03 00:59:01+00:00,263.1864,4.59,12.89,47.84626,-54.09684
2021-05-03 01:09:01+00:00,267.2414,4.57,12.89,47.84626,-54.09684
2021-05-03 01:19:01+00:00,273.1381,4.57,12.65,47.84626,-54.09684
2021-05-03 01:29:01+00:00,276.093,4.6,12.65,47.84626,-54.09684
2021-05-03 01:39:01+00:00,284.4348,4.6,12.65,47.84626,-54.09684
2021-05-03 01:49:01+00:00,294.2164,4.6,12.65,47.84626,-54.09684
2021-05-03 01:59:01+00:00,298.1047,4.6,12.65,47.84626,-54.09684
2021-05-03 02:09:01+00:00,299.313,4.6,12.65,47.84626,-54.09684
2021-05-03 02:19:01+00:00,305.2713,4.6,12.65,47.84626,-54.09684
2021-05-03 02:29:01+00:00,315.178,4.6,12.65,47.84626,-54.09684
2021-05-03 02:39:01+00:00,320.9547,4.6,12.65,47.84626,-54.09684
2021-05-03 02:49:01+00:00,325.2263,4.6,12.65,47.84626,-54.09684
2021-05-03 02:59:01+00:00,328.3563,4.6,12.65,47.84626,-54.09684
2021-05-03 03:09:01+00:00,330.7029,4.6,12.65,47.84626,-54.09684
2021-05-03 03:19:00+00:00,332.5080000000001,4.6,12.65,47.84626,-54.09684
2021-05-03 03:29:00+00:00,340.4313,4.6,12.65,47.84626,-54.09684
2021-05-03 03:39:00+00:00,346.4147,4.6,12.65,47.84626,-54.09684
2021-05-03 03:49:00+00:00,344.6197,4.6,12.65,47.84626,-54.09684
2021-05-03 03:59:00+00:00,347.0396,4.6,12.65,47.84626,-54.09684
2021-05-03 04:09:00+00:00,354.0762,4.6,12.65,47.84626,-54.09684
2021-05-03 04:19:01+00:00,356.0413,4.6,12.65,47.84626,-54.09684
2021-05-03 04:29:01+00:00,357.1329,4.6,12.65,47.84626,-54.09684
2021-05-03 04:39:01+00:00,363.5197,4.6,12.65,47.84626,-54.09684
2021-05-03 04:49:01+00:00,368.5062,4.6,12.65,47.84626,-54.09684
2021-05-03 04:59:01+00:00,368.2396,4.6,12.65,47.84626,-54.09684
2021-05-03 05:09:01+00:00,365.0646,4.6,12.65,47.84626,-54.09684
2021-05-03 05:19:01+00:00,364.3396,4.6,12.65,47.84626,-54.09684
2021-05-03 05:29:01+00:00,368.6029,4.6,12.65,47.84626,-54.09684
2021-05-03 05:39:01+00:00,367.2479,4.6,12.65,47.84626,-54.09684
2021-05-03 05:49:01+00:00,361.1713,4.6,12.65,47.84626,-54.09684
2021-05-03 05:59:01+00:00,356.3779,4.6,12.65,47.84626,-54.09684
2021-05-03 06:09:01+00:00,350.5547,4.6,12.65,47.84626,-54.09684
2021-05-03 06:19:01+00:00,340.6113,4.6,12.65,47.84626,-54.09684
2021-05-03 06:29:01+00:00,336.0864,4.6,12.65,47.84626,-54.09684
2021-05-03 06:39:01+00:00,337.333,4.6,12.65,47.84626,-54.09684
2021-05-03 06:49:01+00:00,324.3346,4.6,12.65,47.84626,-54.09684
2021-05-03 06:59:01+00:00,313.0129,4.6,12.65,47.84626,-54.09684
2021-05-03 07:09:01+00:00,311.1464,4.6,12.65,47.84626,-54.09684
2021-05-03 07:19:00+00:00,307.3546,4.6,12.65,47.84626,-54.09684
2021-05-03 07:29:00+00:00,294.9481,4.77,12.65,47.84626,-54.09684
2021-05-03 07:39:00+00:00,284.163,5.1,12.65,47.84626,-54.09684
2021-05-03 07:49:00+00:00,282.833,5.15,12.65,47.84626,-54.09684
2021-05-03 07:59:00+00:00,273.0331,5.17,12.65,47.84626,-54.09684
2021-05-03 08:09:00+00:00,260.7097,5.2,12.65,47.84626,-54.09684
2021-05-03 08:19:01+00:00,256.5431,5.2,12.57,47.84626,-54.09684
2021-05-03 08:29:01+00:00,251.7415,5.19,12.57,47.84626,-54.09684
2021-05-03 08:39:01+00:00,240.9514,5.2,12.57,47.84626,-54.09684
2021-05-03 08:49:01+00:00,235.3531,5.27,12.57,47.84626,-54.09684
2021-05-03 08:59:01+00:00,234.1631,5.2,12.57,47.84626,-54.09684
2021-05-03 09:09:01+00:00,229.7731,5.2,12.57,47.84626,-54.09684
2021-05-03 09:19:01+00:00,225.2532,5.2,12.57,47.84626,-54.09684
2021-05-03 09:29:01+00:00,228.1631,5.19,12.57,47.84626,-54.09684
2021-05-03 09:39:01+00:00,229.6081,5.1,12.57,47.84626,-54.09684
2021-05-03 09:49:01+00:00,225.1931,5.1,12.57,47.84626,-54.09684
2021-05-03 09:59:01+00:00,223.1848,5.1,12.57,47.84626,-54.09684
2021-05-03 10:09:01+00:00,228.8431,5.1,12.57,47.84626,-54.09684
2021-05-03 10:19:00+00:00,228.7131,5.1,12.57,47.84626,-54.09684
2021-05-03 10:29:00+00:00,223.6231,5.1,12.57,47.84626,-54.09684
2021-05-03 10:39:00+00:00,225.1047,5.1,12.57,47.84626,-54.09684
2021-05-03 10:49:00+00:00,233.0564,5.07,12.57,47.84626,-54.09684
2021-05-03 10:59:00+00:00,234.7297,5.05,12.57,47.84626,-54.09684
2021-05-03 11:09:00+00:00,237.3998,5.07,12.57,47.84626,-54.09684
2021-05-03 11:19:01+00:00,239.7581,5.0,12.97,47.84626,-54.09684
2021-05-03 11:29:01+00:00,241.4581,5.0,12.97,47.84626,-54.09684
2021-05-03 11:39:01+00:00,241.2798,5.0,12.97,47.84626,-54.09684
2021-05-03 11:49:01+00:00,244.2064,5.0,12.97,47.84626,-54.09684
2021-05-03 11:59:01+00:00,244.798,5.0,12.97,47.84626,-54.09684
2021-05-03 12:09:01+00:00,244.058,5.0,12.97,47.84626,-54.09684
2021-05-03 12:19:01+00:00,239.4731,5.0,13.37,47.84626,-54.09684
2021-05-03 12:29:01+00:00,239.2165,4.99,13.37,47.84626,-54.09684
2021-05-03 12:39:01+00:00,241.9614,4.9,13.37,47.84626,-54.09684
2021-05-03 12:49:01+00:00,241.3098,4.9,13.37,47.84626,-54.09684
2021-05-03 12:59:01+00:00,234.8831,4.92,13.37,47.84626,-54.09684
2021-05-03 13:09:01+00:00,233.2198,5.0,13.37,47.84626,-54.09684
2021-05-03 13:19:01+00:00,242.1181,5.0,13.53,47.84626,-54.09684
2021-05-03 13:29:01+00:00,249.5381,4.96,13.53,47.84626,-54.09684
2021-05-03 13:39:01+00:00,247.1681,4.99,13.53,47.84626,-54.09684
2021-05-03 13:49:01+00:00,247.5314,5.05,13.53,47.84626,-54.09684
2021-05-03 13:59:01+00:00,256.3898,5.1,13.53,47.84626,-54.09684
2021-05-03 14:09:01+00:00,262.9447,5.03,13.53,47.84626,-54.09684
2021-05-03 14:19:01+00:00,260.9698,5.07,14.32,47.84626,-54.09684
2021-05-03 14:29:01+00:00,265.9964,5.1,14.32,47.84626,-54.09684
2021-05-03 14:39:01+00:00,276.4114,5.09,14.32,47.84626,-54.09684
2021-05-03 14:49:01+00:00,277.803,4.8,14.32,47.84626,-54.09684
2021-05-03 14:59:01+00:00,276.3198,4.9,14.32,47.84626,-54.09684
2021-05-03 15:09:01+00:00,284.6947,5.0,14.32,47.84626,-54.09684
2021-05-03 15:19:01+00:00,296.0514,4.9,14.56,47.84626,-54.09684
2021-05-03 15:29:01+00:00,297.173,4.9,14.56,47.84626,-54.09684
2021-05-03 15:39:01+00:00,298.9813,4.9,14.56,47.84626,-54.09684
2021-05-03 15:49:01+00:00,301.878,4.7,14.56,47.84626,-54.09684
2021-05-03 15:59:01+00:00,304.8463,4.7,14.56,47.84626,-54.09684
2021-05-03 16:09:01+00:00,305.2847,4.7,14.56,47.84626,-54.09684
2021-05-03 16:19:01+00:00,309.1946,4.7,14.32,47.84626,-54.09684
2021-05-03 16:29:01+00:00,311.4597,4.7,14.32,47.84626,-54.09684
2021-05-03 16:39:01+00:00,315.4796,4.7,14.32,47.84626,-54.09684
2021-05-03 16:49:01+00:00,318.5747,4.61,14.32,47.84626,-54.09684
2021-05-03 16:59:01+00:00,317.2996,4.64,14.32,47.84626,-54.09684
2021-05-03 17:09:01+00:00,314.543,4.69,14.32,47.84626,-54.09684
2021-05-03 17:19:01+00:00,320.7614,4.7,14.32,47.84626,-54.09684
2021-05-03 17:29:01+00:00,326.9196,4.7,14.32,47.84626,-54.09684
2021-05-03 17:39:01+00:00,323.3962,4.77,14.32,47.84626,-54.09684
2021-05-03 17:49:01+00:00,324.6797,4.8,14.32,47.84626,-54.09684
2021-05-03 17:59:01+00:00,331.1964,4.8,14.32,47.84626,-54.09684
2021-05-03 18:09:01+00:00,329.783,4.8,14.32,47.84626,-54.09684
2021-05-03 18:19:01+00:00,324.548,4.9,13.84,47.84626,-54.09684
2021-05-03 18:29:01+00:00,326.668,4.9,13.84,47.84626,-54.09684
2021-05-03 18:39:01+00:00,329.4562,4.9,13.84,47.84626,-54.09684
2021-05-03 18:49:01+00:00,318.178,5.0,13.84,47.84626,-54.09684
2021-05-03 18:59:01+00:00,308.6664,5.1,13.84,47.84626,-54.09684
2021-05-03 19:09:01+00:00,307.9863,5.1,13.84,47.84626,-54.09684
2021-05-03 19:19:00+00:00,302.373,5.13,14.0,47.84626,-54.09684
2021-05-03 19:29:00+00:00,289.3063,5.21,14.0,47.84626,-54.09684
2021-05-03 19:39:00+00:00,284.9031,5.29,14.0,47.84626,-54.09684
2021-05-03 19:49:00+00:00,285.8314,5.27,14.0,47.84626,-54.09684
2021-05-03 19:59:00+00:00,274.8865,5.3,14.0,47.84626,-54.09684
2021-05-03 20:09:00+00:00,263.858,5.3,14.0,47.84626,-54.09684
2021-05-03 20:19:01+00:00,259.0214,5.3,13.84,47.84626,-54.09684
2021-05-03 20:29:01+00:00,256.6764,5.3,13.84,47.84626,-54.09684
2021-05-03 20:39:01+00:00,244.8597,5.3,13.84,47.84626,-54.09684
2021-05-03 20:49:01+00:00,235.8997,5.4,13.84,47.84626,-54.09684
2021-05-03 20:59:01+00:00,231.9314,5.5,13.84,47.84626,-54.09684
2021-05-03 21:09:01+00:00,228.5598,5.6,13.84,47.84626,-54.09684
2021-05-03 21:19:01+00:00,222.3165,5.68,13.76,47.84626,-54.09684
2021-05-03 21:29:01+00:00,219.4981,5.7,13.76,47.84626,-54.09684
2021-05-03 21:39:01+00:00,219.2547,5.7,13.76,47.84626,-54.09684
2021-05-03 21:49:01+00:00,218.1914,5.7,13.76,47.84626,-54.09684
2021-05-03 21:59:01+00:00,214.7731,5.81,13.76,47.84626,-54.09684
2021-05-03 22:09:01+00:00,215.2715,6.0,13.76,47.84626,-54.09684
2021-05-03 22:19:01+00:00,215.5298,6.09,13.6,47.84626,-54.09684
2021-05-03 22:29:01+00:00,212.4698,6.1,13.6,47.84626,-54.09684
2021-05-03 22:39:01+00:00,209.1681,6.1,13.6,47.84626,-54.09684
2021-05-03 22:49:01+00:00,213.3698,6.1,13.6,47.84626,-54.09684
2021-05-03 22:59:01+00:00,215.0265,6.12,13.6,47.84626,-54.09684
2021-05-03 23:09:01+00:00,210.7781,6.1,13.6,47.84626,-54.09684
2021-05-03 23:19:01+00:00,211.3647,5.9,13.21,47.84626,-54.09684
2021-05-03 23:29:01+00:00,212.9097,5.9,13.21,47.84626,-54.09684
2021-05-03 23:39:01+00:00,210.3931,5.9,13.21,47.84626,-54.09684
2021-05-03 23:49:01+00:00,214.1698,5.8,13.21,47.84626,-54.09684
2021-05-03 23:59:01+00:00,220.8647,5.8,13.21,47.84626,-54.09684
